Waukegan, IL

1:48 AM CST on January 19, 2017 (GMT -0600)
Waukegan Regional

Weather History for KUGN - June, 2014

Change the Weather History Date:

Sunday, June 8, 2014

  Actual Average Record
Temperature  
Mean Temperature 59 °F -  
Max Temperature 65 °F 73 °F 94 °F (2011)
Min Temperature 53 °F 52 °F 43 °F (2013)
Degree Days  
Heating Degree Days 6 4  
Month to date heating degree days 26 42  
Since 1 June heating degree days 26 42  
Since 1 July heating degree days 7969 6793  
Cooling Degree Days 0 2  
Month to date cooling degree days 20 14  
Year to date cooling degree days 43 39  
Since 1 June cooling degree days 20 14  
Growing Degree Days 8 (Base 50)    
Moisture  
Dew Point 45 °F    
Average Humidity 64    
Maximum Humidity 93    
Minimum Humidity 34    
Precipitation  
Precipitation 0.06 in 0.15 in 1.66 in (2008)
Month to date precipitation 0.75 1.24  
Year to date precipitation 11.59 14.10  
Sea Level Pressure  
Sea Level Pressure 29.97 in    
Wind  
Wind Speed 12 mph (North)    
Max Wind Speed 21 mph    
Max Gust Speed 32 mph    
Visibility 10 miles    
Events Rain    
T = Trace of Precipitation, MM = Missing Value Source: NWS Daily Summary

Daily Weather History Graph

Daily Weather History Graph

Search for Another Location

Airport or City:

Trip Planner

Search our weather history database for the weather conditions in past years. The results will help you decide how hot, cold, wet, or windy it might be!

Date:

Astronomy

Jun. 08, 2014 Rise Set
Actual Time 5:14 AM CDT 8:26 PM CDT
Civil Twilight 4:40 AM CDT 9:01 PM CDT
Nautical Twilight 3:55 AM CDT 9:45 PM CDT
Astronomical Twilight 3:02 AM CDT 10:39 PM CDT
Moon 3:39 PM CDT (6/8) 2:13 AM CDT (6/8)
Length of Visible Light 16h 21m
Length of Day
15h 12m
Waxing Gibbous, 77% of the Moon is Illuminated
Jun 8
Waxing Gibbous
Jun 12
Full
Jun 19
Last Quarter
Jun 27
New
Jul 5
First Quarter

Hourly Weather History & Observations

Time (CDT) Temp. Dew Point Humidity Pressure Visibility Wind Dir Wind Speed Gust Speed Precip Events Conditions
12:52 AM 59.0 °F 55.0 °F 87% 29.87 in 6.0 mi North 9.2 mph - 0.06 in Rain Rain
1:52 AM 54.0 °F 51.1 °F 90% 29.85 in 10.0 mi NNE 8.1 mph - 0.07 in Rain Light Rain
2:52 AM 53.1 °F 48.9 °F 86% 29.87 in 10.0 mi North 12.7 mph 18.4 mph 0.00 in   Overcast
3:43 AM 53.1 °F 50.0 °F 89% 29.90 in 10.0 mi NNE 13.8 mph 25.3 mph N/A   Overcast
3:52 AM 53.1 °F 50.0 °F 89% 29.90 in 10.0 mi North 13.8 mph 25.3 mph N/A   Overcast
4:17 AM 54.0 °F 50.0 °F 86% 29.91 in 10.0 mi NNE 13.8 mph 26.5 mph N/A   Overcast
4:32 AM 53.1 °F 50.0 °F 89% 29.92 in 10.0 mi NNE 16.1 mph 31.1 mph N/A   Overcast
4:52 AM 54.0 °F 50.0 °F 86% 29.92 in 10.0 mi North 11.5 mph 24.2 mph N/A   Overcast
5:11 AM 54.0 °F 50.0 °F 86% 29.93 in 10.0 mi North 13.8 mph 25.3 mph N/A   Overcast
5:37 AM 53.1 °F 48.9 °F 86% 29.93 in 10.0 mi North 16.1 mph 29.9 mph N/A   Overcast
5:52 AM 53.1 °F 48.9 °F 86% 29.92 in 10.0 mi North 12.7 mph 25.3 mph N/A   Overcast
6:52 AM 54.0 °F 48.9 °F 83% 29.93 in 10.0 mi North 13.8 mph 25.3 mph N/A   Overcast
7:52 AM 55.9 °F 50.0 °F 80% 29.95 in 10.0 mi North 10.4 mph 21.9 mph N/A   Mostly Cloudy
8:52 AM 57.0 °F 48.9 °F 74% 29.99 in 10.0 mi North 5.8 mph - N/A   Overcast
9:52 AM 60.1 °F 48.9 °F 67% 30.00 in 10.0 mi North 15.0 mph 25.3 mph N/A   Clear
10:52 AM 61.0 °F 50.0 °F 67% 30.00 in 10.0 mi North 13.8 mph 23.0 mph N/A   Clear
11:52 AM 62.1 °F 51.1 °F 67% 30.00 in 10.0 mi NNE 13.8 mph - N/A   Clear
12:52 PM 64.9 °F 51.1 °F 61% 30.01 in 10.0 mi North 16.1 mph 24.2 mph N/A   Clear
1:52 PM 64.0 °F 45.0 °F 50% 30.02 in 10.0 mi North 13.8 mph 23.0 mph N/A   Clear
3:52 PM 64.9 °F 39.0 °F 39% 30.02 in 10.0 mi NNE 13.8 mph 23.0 mph N/A   Clear
4:52 PM 64.9 °F 35.1 °F 33% 30.02 in 10.0 mi North 11.5 mph 25.3 mph N/A   Clear
5:52 PM 64.0 °F 35.1 °F 34% 30.02 in 10.0 mi North 12.7 mph 23.0 mph N/A   Clear
6:52 PM 63.0 °F 34.0 °F 34% 30.03 in 10.0 mi North 9.2 mph 19.6 mph N/A   Clear
7:52 PM 62.1 °F 33.1 °F 34% 30.02 in 10.0 mi North 15.0 mph 20.7 mph N/A   Clear
8:52 PM 61.0 °F 35.1 °F 38% 30.02 in 10.0 mi North 11.5 mph 20.7 mph N/A   Clear
9:52 PM 60.1 °F 36.0 °F 41% 30.03 in 10.0 mi North 9.2 mph 19.6 mph N/A   Clear
10:52 PM 59.0 °F 37.9 °F 46% 30.04 in 10.0 mi North 9.2 mph 18.4 mph N/A   Clear
11:52 PM 55.9 °F 39.0 °F 53% 30.03 in 10.0 mi Variable 6.9 mph - N/A   Clear